Regional Weather Roundup
Issued by NWS Wilmington, NC

Home | Current Version | Previous Version | Text Only | Print | Product List | Glossary On
Versions: 1 2 3 4 5 6 7 8 9 10 11 12 13 14 15 16 17 18 19 20 21 22 23 24 25 26 27 28 29 30 31 32 33 34 35 36 37 38 39 40 41 42 43 44 45 46 47 48 49 50
000
ASUS42 KILM 231213
RWRILM
RWRILM
REGIONAL HOURLY WEATHER ROUNDUP
NATIONAL WEATHER SERVICE WILMINGTON NC
800 AM EDT WED AUG 23 2017

NOTE: "FAIR" INDICATES FEW OR NO CLOUDS BELOW 12,000 FEET WITH NO
SIGNIFICANT WEATHER AND/OR OBSTRUCTIONS TO VISIBILITY.

...............WFO WILMINGTON COUNTY WARNING AREA...............

......COASTAL NC AND SC COUNTIES......

CITY           SKY/WX    TMP DP  RH WIND       PRES   REMARKS
WILMINGTON     CLOUDY    78  74  87 SW8       29.92F
N MYRTLE BEACH SUNNY     78  74  87 W7        29.92F
MYRTLE BEACH   PTSUNNY   79  73  83 W7        29.94F

......INLAND NC AND SC COUNTIES.......

CITY           SKY/WX    TMP DP  RH WIND       PRES   REMARKS
LUMBERTON      PTSUNNY   76  75  97 SW5       29.91S
ELIZABETHTOWN  NOT AVBL
WHITEVILLE     CLOUDY    77  74  92 SW3       29.92F
FLORENCE       SUNNY     77  75  93 SW8       29.92S
DARLINGTON     MOSUNNY   76  74  93 SW8       29.92S
KINGSTREE      FAIR      75  73  94 SW3       29.93S
HARTSVILLE     FAIR      73  72  94 SW5       29.92S FOG
BENNETTSVILLE  FAIR      79  77  94 S3        29.91S
CONWAY         FAIR      77  73  88 SW6       29.93F FOG
GEORGETOWN     FAIR      73  73 100 SW3       29.95S
MARION           N/A     75  72  88 SW5       29.93R

....................REST OF NORTH CAROLINA......................

.........EASTERN NC.........

CITY           SKY/WX    TMP DP  RH WIND       PRES   REMARKS
CAPE HATTERAS  SUNNY     82  78  88 SW8       29.91F HX  91
JACKSONVILLE   CLOUDY    76  75  97 SW6       29.92R
MOREHEAD CITY  CLOUDY    81  77  88 W13G18    29.92S
KENANSVILLE    PTSUNNY   75  73  94 SW5       29.91S
NEW BERN       MOSUNNY   77  75  93 SW7       29.92R
ELIZABETH CITY SUNNY     79  77  94 SW9       29.88S

.........CENTRAL NC.........

CITY           SKY/WX    TMP DP  RH WIND       PRES   REMARKS
RALEIGH DURHAM MOSUNNY   78  74  87 SW8       29.89S
ROCKY MOUNT    SUNNY     77  76  96 SW8       29.88S
ROANOKE RAPIDS NOT AVBL
FAYETTEVILLE   PTSUNNY   78  76  93 SW7       29.90S
HOFFMAN        SUNNY     76  74  93 SW7       29.91S

.........WESTERN NC.........

CITY           SKY/WX    TMP DP  RH WIND       PRES   REMARKS
CHARLOTTE      MOSUNNY   75  74  96 SW5       29.92S
GREENSBORO     MOSUNNY   74  73  97 W5        29.91S
HICKORY        NOT AVBL
BOONE          NOT AVBL
ASHEVILLE      NOT AVBL

.....................REST OF SOUTH CAROLINA.....................

.........EASTERN SC.........

CITY           SKY/WX    TMP DP  RH WIND       PRES   REMARKS
CHARLESTON     MOSUNNY   78  76  93 SW7       29.95S
BEAUFORT MCAS  MOSUNNY   79  76  90 SW6       29.96R
HILTON HEAD    SUNNY     79  77  94 CALM      29.97R

.........CENTRAL SC.........

CITY           SKY/WX    TMP DP  RH WIND       PRES   REMARKS
COLUMBIA       MOSUNNY   78  72  81 SW6       29.92S
ORANGEBURG     SUNNY     75  73  93 SW6       29.94F
SUMTER SHAW    MOSUNNY   77  73  88 SW10      29.90F

.........WESTERN SC.........

CITY           SKY/WX    TMP DP  RH WIND       PRES   REMARKS
GREENVILLE     NOT AVBL
ROCK HILL      SUNNY     73  73 100 SW5       29.93S
ANDERSON       SUNNY     75  72  90 SW6       29.94R
CLEMSON        NOT AVBL
GREENWOOD      SUNNY     75  73  93 SW8       29.95R


...................COASTAL AND OFFSHORE REPORTS..................

................LOCAL PIERS AND NC RESERVE................


STATION/POSITION TIME  SKY/WX   TEMP    WIND        PRES    VSBY
                                AIR SEA DIR/SP/G
                 (UTC)          (F)     (DEG/KT/KT) (MB)    (MI)
JOHNY MRCER PIER 1148            80 84  240/ 10/ 14 1012.1F
NC RESRV MASNBRO NOT AVBL
OCEAN CREST PIER NOT AVBL
SPRINGMAID  PIER 1148                               1012.7F


................COASTAL AND OFFSHORE BUOYS................


STATION/POSITION TIME  SKY/WX   TEMP    WIND        PRES    VSBY
                                AIR SEA DIR/SP/G
                 (UTC)          (F)     (DEG/KT/KT) (MB)    (MI)
DIMNDSHOAL 41025 1150            83 85  250/ 16/ 17 1012.6F
WVE H/P(F/S)=  4/ 5 SWL H/P/D(F/S/D)=  2/130/ 9

CAPE LOOKOUT     1200            81     250/ 12/ 15 1012.9R
ONSLOW BAY 41036 NOT AVBL
ONSLOW BAY 41064 1108            74 83  300/ 16/ 21 1013.4S
ONSLOW BAY 41159 1143               83                N/A
WVE H/P(F/S)=  5/ 9 SWL H/P/D(F/S/D)=  2/130/11

MASNBO INL 41110 1129               84                N/A
WVE H/P(F/S)=  3/ 9

WILM HARBR 41108 1130               85                N/A
WVE H/P(F/S)=  4/ 5

27SE WRITB 41037 1108            82 83  240/ 17/ 23 1013.2R
FRYING PAN 41013 1200            80 84  280/ 12/ 16 1013.6
SUNST NRSH 41024 1108            81 85  260/ 14/ 17 1013.2S
CAPRS NRSH 41029 1108            80 85  280/ 12/ 17 1013.7F
EDISTO     41004 1200            81 84  200/ 14/ 16 1013.8


..........OFFSHORE BUOYS BEYOND 100 NM OFFSHORE...........
.....IN A TRIANGLE---HAT TO BERMUDA TO BAHAMAS TO HAT.....


STATION/POSITION TIME  SKY/WX   TEMP    WIND        PRES    VSBY
                                AIR SEA DIR/SP/G
                 (UTC)          (F)     (DEG/KT/KT) (MB)    (MI)
150E HAT   41001 1200               82  230/ 12/ 14 1014.5
W BERMUDA  41048 1200            81 83   40/  4/  6 1016.2
ATLANTIC S 41049 1150            79 85  110/  4/  8 1016.1R
WVE H/P(F/S)=  6/ 9 SWL H/P/D(F/S/D)=  7/100/ 9

E BAHAMAS  41046 1200            82 84   60/  8/ 10 1015.2
NE BAHAMAS 41047 1200            83 85   10/  8/ 10 1016.6
120E CANVRL41010 1200            81 85  310/  6/  8 1014.9

END



USA.gov is the U.S. government's official web portal to all federal, state and local government web resources and services.